Location: *
(46.1833°N, 22.7667°E)
Time: 15:11:11
(UTC+00:00)

Cosmos 1455 Rocket - Pass Details

Date: 17 September 2019
Orbit: 605 x 630 km, 82.5° (Epoch: 16 October)

Event Time Altitude Azimuth Distance (km) Brightness Sun altitude
Exits shadow 18:23:34 41° 120° (ESE) 914 3.4 -18.6°
Maximum altitude 18:24:17 45° 93° (E) 863 3.3 -18.7°
Drops below altitude 10° 18:28:32 10° 21° (NNE) 2,015 5.7 -19.4°
Sets 18:30:51 0° 15° (NNE) 2,929 6.7 -19.8°
